Location: Chamerau
(49.1969°N, 12.7525°E)
Time: 23:16:32
(UTC+00:00)

CENTAUR R/B - Pass Details

Date: 18 September 2020
Orbit: 753 x 1435 km, 63.5° (Epoch: 26 October)

Event Time Altitude Azimuth Distance (km) Brightness Sun altitude
Rises 21:14:48 0° 314° (NW) 4,210 6.8 -34.3°
Reaches altitude 10° 21:17:52 10° 304° (NW) 3,326 6.0 -34.6°
Maximum altitude 21:24:44 30° 248° (WSW) 2,269 4.4 -35.1°
Enters shadow 21:25:43 30° 236° (WSW) 2,310 4.3 -35.2°
